Location: Blackie
(50.6050°N, 113.6230°W)
Time: 07:55:14
(UTC+00:00)

N. Korean satellite - Pass Details

Date: 08 December 2021
Orbit: 446 x 491 km, 97.3° (Epoch: 18 January)

Event Time Altitude Azimuth Distance (km) Brightness Sun altitude
Rises 12:13:59 0° 23° (NNE) 2,465 10.4 -28.8°
Reaches altitude 10° 12:16:17 10° 38° (NE) 1,585 9.6 -28.4°
Maximum altitude 12:19:07 25° 95° (E) 960 8.7 -27.9°
Drops below altitude 10° 12:21:57 10° 152° (SSE) 1,574 9.5 -27.5°
Sets 12:24:13 0° 166° (SSE) 2,443 10.3 -27.1°
